Orlando, FL

4:29 AM EST on February 11, 2016 (GMT -0500)
Orlando International

Weather History for KMCO - March, 2013

Change the Weather History Date:

Sunday, March 31, 2013

  Actual Average Record
Temperature  
Mean Temperature 71 °F 69 °F  
Max Temperature 83 °F 80 °F 95 °F (1907)
Min Temperature 58 °F 58 °F 41 °F (1950)
Degree Days  
Heating Degree Days 0 1  
Month to date heating degree days 149 59  
Since 1 July heating degree days 461 558  
Cooling Degree Days 6 5  
Month to date cooling degree days 51 118  
Year to date cooling degree days 251 222  
Growing Degree Days 20 (Base 50)    
Moisture  
Dew Point 52 °F    
Average Humidity 57    
Maximum Humidity 80    
Minimum Humidity 34    
Precipitation  
Precipitation 0.00 in 0.13 in 4.31 in (1972)
Month to date precipitation 1.27 3.77  
Year to date precipitation 2.18 8.50  
Sea Level Pressure  
Sea Level Pressure 30.11 in    
Wind  
Wind Speed 8 mph (SSW)    
Max Wind Speed 20 mph    
Max Gust Speed 24 mph    
Visibility 10 miles    
Events      
T = Trace of Precipitation, MM = Missing Value Source: NWS Daily Summary

Daily Weather History Graph

Daily Weather History Graph

Search for Another Location

Airport or City:

Trip Planner

Search our weather history database for the weather conditions in past years. The results will help you decide how hot, cold, wet, or windy it might be!

Date:

Astronomy

Mar. 31, 2013 Rise Set
Actual Time 7:16 AM EDT 7:42 PM EDT
Civil Twilight 6:52 AM EDT 8:06 PM EDT
Nautical Twilight 6:24 AM EDT 8:34 PM EDT
Astronomical Twilight 5:56 AM EDT 9:02 PM EDT
Moon No Moon Rise 10:23 AM EDT (3/31)
Length of Visible Light 13h 13m
Length of Day
12h 26m
Waning Gibbous, 78% of the Moon is Illuminated
Mar 31
Waning Gibbous
Apr 3
Last Quarter
Apr 10
New
Apr 18
First Quarter
Apr 25
Full

Hourly Weather History & Observations

Time (EDT) Temp. Dew Point Humidity Pressure Visibility Wind Dir Wind Speed Gust Speed Precip Events Conditions
12:53 AM 62.1 °F 50.0 °F 65% 30.19 in 10.0 mi South 5.8 mph - N/A   Overcast
1:53 AM 62.1 °F 50.0 °F 65% 30.17 in 10.0 mi South 6.9 mph - N/A   Overcast
2:53 AM 60.1 °F 51.1 °F 72% 30.16 in 10.0 mi South 5.8 mph - N/A   Overcast
3:53 AM 60.1 °F 52.0 °F 75% 30.15 in 10.0 mi South 4.6 mph - N/A   Overcast
4:53 AM 61.0 °F 53.1 °F 75% 30.14 in 10.0 mi SSE 5.8 mph - N/A   Overcast
5:53 AM 61.0 °F 53.1 °F 75% 30.14 in 10.0 mi South 8.1 mph - N/A   Overcast
6:53 AM 60.1 °F 53.1 °F 78% 30.16 in 10.0 mi South 4.6 mph - N/A   Mostly Cloudy
7:53 AM 59.0 °F 53.1 °F 81% 30.18 in 10.0 mi South 3.5 mph - N/A   Mostly Cloudy
8:53 AM 64.0 °F 55.0 °F 73% 30.18 in 10.0 mi South 4.6 mph - N/A   Mostly Cloudy
9:53 AM 70.0 °F 54.0 °F 57% 30.18 in 10.0 mi SSW 11.5 mph - N/A   Scattered Clouds
10:53 AM 73.0 °F 53.1 °F 49% 30.17 in 10.0 mi South 11.5 mph 20.7 mph N/A   Scattered Clouds
11:53 AM 77.0 °F 53.1 °F 43% 30.15 in 10.0 mi SSW 11.5 mph - N/A   Scattered Clouds
12:53 PM 79.0 °F 52.0 °F 39% 30.14 in 10.0 mi South 15.0 mph 21.9 mph N/A   Scattered Clouds
1:53 PM 79.0 °F 50.0 °F 36% 30.11 in 10.0 mi SSW 17.3 mph - N/A   Scattered Clouds
2:53 PM 80.1 °F 50.0 °F 35% 30.08 in 10.0 mi SW 11.5 mph 19.6 mph N/A   Mostly Cloudy
3:53 PM 81.0 °F 50.0 °F 34% 30.05 in 10.0 mi South 13.8 mph 20.7 mph N/A   Mostly Cloudy
4:53 PM 82.0 °F 52.0 °F 35% 30.02 in 10.0 mi South 10.4 mph 19.6 mph N/A   Mostly Cloudy
5:53 PM 81.0 °F 51.1 °F 35% 30.01 in 10.0 mi SSW 11.5 mph - N/A   Mostly Cloudy
6:53 PM 79.0 °F 52.0 °F 39% 30.01 in 10.0 mi SSW 9.2 mph - N/A   Mostly Cloudy
7:53 PM 75.9 °F 50.0 °F 40% 30.01 in 10.0 mi SW 5.8 mph - N/A   Scattered Clouds
8:53 PM 69.1 °F 52.0 °F 54% 30.02 in 10.0 mi Calm Calm - N/A   Partly Cloudy
9:53 PM 69.1 °F 53.1 °F 57% 30.04 in 10.0 mi SW 4.6 mph - N/A   Partly Cloudy
10:53 PM 68.0 °F 54.0 °F 61% 30.04 in 10.0 mi WSW 4.6 mph - N/A   Scattered Clouds
11:53 PM 66.9 °F 55.9 °F 68% 30.05 in 10.0 mi WSW 4.6 mph - N/A   Scattered Clouds